Probability
61 68 71 68 74 84 81 74 81 84 77 74 55 48 35 32 29 26 26 26 23 23 26 23 23 23 23 23 19 16 13 19 19 16 10 6 6 10 19 23 39 26 29
52 58 65 52 65 71 74 74 74 71 65 65 58 52 29 23 26 23 29 16 13 16 6 13 16 19 19 16 13 16 13 10 6 10 3 0 0 16 0 19 32 29 32
32 35 39 35 55 55 58 35 65 65 68 65 35 32 42 32 10 13 16 16 10 6 6 6 6 6 6 6 13 13 10 13 6 10 3 0 0 3 0 0 0 6 26
16 16 26 26 26 32 39 48 61 61 68 52 39 23 26 13 19 13 13 13 3 3 3 3 3 3 3 3 6 0 6 10 6 6 3 0 0 0 0 0 0 0 3
10 13 26 26 29 32 32 42 52 58 58 52 52 55 13 13 10 10 13 13 3 3 3 3 3 6 3 0 0 0 6 6 3 3 3 0 6 3 0 0 0 0 0
3 6 23 35 32 39 39 39 58 52 48 48 42 35 32 29 13 16 13 10 0 0 0 0 0 0 3 0 3 0 0 3 0 3 3 3 0 0 0 0 0 0 3
3 16 29 42 35 42 39 39 39 35 26 23 16 19 13 13 13 13 3 3 0 3 3 0 0 0 0 0 0 3 0 0 3 0 3 3 3 0 0 0 0 0 0
16 23 35 26 29 29 29 23 16 16 13 13 13 6 6 3 3 3 3 0 0 0 0 0 0 0 0 0 0 3 3 0 0 0 0 0 0 0 0 0 0 0 0
10 10 13 19 16 13 16 13 13 10 10 10 3 3 3 3 3 3 3 0 0 0 0 0 0 0 0 0 0 0 0 0 0 0 0 0 0 0 0 6 6 0 0
6 3 6 6 6 13 13 10 10 6 3 3 3 3 0 3 3 0 0 0 0 0 0 0 0 0 0 0 0 0 0 0 0 0 0 0 0 0 0 3 6 6 3
3 0 6 6 6 3 3 3 3 3 3 0 0 0 0 0 0 0 0 0 0 0 0 0 0 0 0 0 0 0 0 0 0 0 0 0 0 0 0 0 0 0 0
0 0 0 3 3 3 0 3 0 0 0 0 0 0 0 0 0 0 0 0 0 0 0 0 0 0 0 0 0 0 0 0 0 0 0 0 0 0 0 0 0 0 0
0 0 0 0 0 0 0 0 0 0 0 0 0 0 0 0 0 0 0 0 0 0 0 0 0 0 0 0 0 0 0 0 0 0 0 0 0 0 0 0 0 0 0
0 0 0 0 0 0 0 0 0 0 0 0 0 0 0 0 0 0 0 0 0 0 0 0 0 0 0 0 0 0 0 0 0 0 0 0 0 0 0 0 0 0 0
0 0 0 3 3 0 0 0 0 0 0 0 0 0 0 0 0 0 0 0 0 0 0 0 0 0 0 0 0 0 0 0 0 0 0 0 0 0 0 0 0 0 0
0 0 0 3 3 3 0 0 0 0 0 0 0 0 0 0 0 0 0 0 0 0 0 0 0 0 0 0 0 0 0 0 0 0 0 0 0 0 0 0 0 0 0
0 0 0 0 3 0 0 0 0 0 0 0 0 0 0 0 0 0 0 0 0 0 0 0 0 0 0 0 0 0 0 0 0 0 0 0 0 0 0 0 0 0 0
0 0 0 0 0 0 0 0 0 0 0 0 0 0 0 0 0 0 0 0 0 0 0 0 0 0 0 0 0 0 0 0 0 0 0 0 0 0 0 0 0 0 0
0 0 0 0 0 0 0 0 0 0 0 0 0 0 0 0 0 0 0 0 0 0 0 0 0 0 0 0 0 0 0 0 0 0 0 0 0 0 0 0 0 3 6
0 0 0 0 0 0 0 0 0 0 0 0 0 0 0 0 0 0 0 0 0 0 0 0 0 0 0 0 0 0 0 0 0 0 0 0 0 0 0 0 0 0 3
0 0 0 0 0 0 0 0 0 0 0 0 0 0 0 0 0 0 0 0 0 0 0 0 0 0 0 0 0 0 0 0 0 0 0 3 0 0 0 0 0 0 0
0 0 0 0 0 0 0 0 0 0 0 0 0 0 0 0 0 0 0 0 0 0 0 0 0 0 0 0 0 0 0 0 0 0 3 0 0 0 0 0 0 0 0
0 0 0 0 0 0 0 0 0 0 0 0 0 0 0 0 0 0 0 0 0 0 0 0 0 0 0 0 0 0 0 0 0 0 0 0 0 0 0 0 0 0 0
0 0 0 0 0 0 0 0 0 0 0 0 0 0 0 0 0 0 0 0 0 0 0 0 0 0 0 0 0 0 0 0 0 0 0 0 0 0 0 0 0 0 6
0 0 0 0 0 0 0 0 0 0 0 0 0 0 0 0 0 0 0 0 0 0 0 0 0 0 0 0 0 0 0 0 0 0 3 3 3 0 0 0 0 0 0
0 0 0 0 0 0 0 0 0 0 0 0 0 0 0 0 0 0 0 0 0 0 0 0 0 0 0 0 0 0 0 0 0 0 3 3 0 0 0 0 0 0 0
Height
5872 5872 5872 5871 5870 5869 5868 5867 5865 5864 5863 5862 5859 5857 5855 5853 5851 5849 5847 5845 5843 5841 5839 5837 5836 5834 5833 5832 5831 5831 5830 5830 5830 5830 5830 5830 5831 5832 5833 5834 5836 5837 5839
5868 5868 5868 5867 5867 5865 5864 5863 5861 5860 5858 5857 5854 5852 5850 5847 5845 5843 5840 5838 5836 5834 5831 5830 5828 5826 5825 5824 5823 5822 5821 5821 5821 5821 5821 5822 5823 5823 5824 5825 5826 5828 5830
5865 5865 5865 5864 5863 5862 5861 5859 5857 5855 5854 5852 5849 5847 5845 5842 5839 5836 5834 5831 5828 5826 5824 5822 5820 5818 5816 5815 5814 5813 5812 5812 5812 5811 5812 5812 5813 5813 5814 5815 5817 5818 5820
5862 5862 5862 5861 5860 5859 5857 5855 5854 5852 5850 5847 5845 5842 5839 5836 5833 5830 5827 5824 5822 5819 5817 5815 5812 5810 5808 5807 5806 5805 5803 5802 5802 5802 5802 5802 5803 5803 5804 5805 5806 5808 5810
5860 5860 5859 5858 5857 5855 5854 5852 5850 5848 5846 5843 5840 5837 5834 5831 5827 5824 5821 5818 5815 5812 5810 5807 5805 5803 5800 5799 5797 5796 5794 5793 5792 5792 5792 5792 5792 5793 5794 5795 5797 5798 5800
5858 5857 5857 5856 5854 5853 5851 5848 5846 5844 5841 5838 5834 5831 5828 5825 5821 5818 5815 5812 5808 5805 5802 5800 5797 5794 5792 5790 5788 5786 5785 5783 5782 5781 5781 5781 5782 5783 5783 5785 5786 5788 5790
5856 5855 5854 5853 5851 5850 5848 5845 5842 5839 5836 5833 5830 5826 5823 5819 5816 5812 5809 5805 5801 5798 5795 5792 5789 5786 5783 5780 5778 5776 5774 5773 5772 5771 5770 5770 5770 5771 5773 5774 5776 5777 5780
5854 5853 5851 5850 5848 5846 5844 5841 5838 5835 5831 5828 5825 5821 5817 5814 5810 5806 5802 5798 5794 5791 5787 5783 5780 5776 5773 5770 5768 5765 5764 5762 5761 5760 5759 5758 5759 5759 5761 5763 5764 5767 5769
5852 5850 5849 5847 5845 5843 5840 5837 5834 5831 5827 5824 5820 5816 5812 5808 5804 5800 5795 5791 5787 5783 5779 5774 5770 5766 5763 5760 5757 5754 5752 5750 5749 5748 5747 5747 5747 5748 5749 5751 5753 5756 5758
5850 5848 5846 5844 5842 5839 5837 5834 5830 5827 5823 5819 5815 5811 5806 5802 5797 5793 5788 5783 5779 5774 5769 5765 5760 5756 5752 5749 5745 5743 5740 5738 5737 5735 5735 5735 5735 5736 5737 5739 5741 5743 5746
5848 5846 5844 5841 5839 5836 5833 5830 5826 5822 5818 5814 5809 5805 5800 5796 5791 5786 5780 5775 5770 5765 5759 5754 5749 5745 5741 5737 5733 5730 5728 5726 5724 5723 5722 5722 5722 5723 5725 5726 5729 5731 5734
5845 5843 5841 5838 5835 5832 5829 5825 5821 5817 5813 5809 5804 5799 5794 5789 5783 5778 5772 5766 5760 5754 5749 5743 5738 5733 5729 5725 5721 5718 5715 5713 5711 5710 5709 5709 5709 5710 5712 5713 5716 5719 5722
5842 5840 5837 5834 5831 5828 5824 5821 5816 5812 5807 5803 5798 5792 5787 5781 5775 5769 5763 5757 5750 5744 5738 5732 5727 5722 5717 5712 5708 5705 5703 5700 5698 5697 5696 5696 5696 5697 5698 5700 5703 5706 5709
5839 5836 5834 5831 5827 5824 5820 5816 5811 5807 5802 5797 5791 5786 5780 5773 5767 5761 5754 5747 5740 5734 5727 5721 5715 5710 5705 5700 5696 5693 5690 5687 5685 5684 5683 5683 5683 5684 5685 5687 5689 5692 5696
5835 5832 5829 5826 5823 5819 5815 5810 5806 5801 5796 5790 5785 5779 5772 5766 5759 5752 5745 5737 5730 5723 5717 5710 5704 5698 5693 5688 5684 5680 5677 5674 5672 5670 5669 5669 5669 5669 5671 5673 5675 5678 5682
5831 5828 5825 5821 5818 5814 5809 5805 5800 5795 5790 5784 5778 5772 5765 5758 5750 5743 5736 5728 5720 5713 5706 5699 5693 5687 5681 5677 5672 5668 5664 5661 5659 5657 5656 5655 5655 5655 5656 5658 5661 5664 5668
5826 5823 5820 5816 5813 5808 5804 5799 5794 5789 5783 5778 5771 5764 5757 5750 5742 5734 5726 5718 5711 5703 5696 5689 5682 5676 5670 5665 5660 5656 5652 5649 5647 5644 5643 5641 5641 5641 5642 5643 5645 5649 5653
5821 5818 5815 5811 5807 5803 5798 5793 5788 5783 5777 5771 5764 5757 5749 5741 5733 5725 5717 5709 5701 5694 5686 5679 5673 5666 5660 5655 5650 5645 5641 5638 5635 5632 5630 5628 5627 5627 5627 5629 5631 5635 5639
5816 5813 5809 5805 5801 5797 5792 5788 5782 5777 5771 5764 5757 5749 5741 5733 5725 5716 5708 5700 5692 5685 5677 5670 5663 5657 5651 5645 5639 5634 5630 5626 5623 5620 5617 5615 5614 5613 5614 5616 5618 5622 5625
5810 5807 5803 5799 5795 5791 5786 5781 5776 5770 5763 5757 5749 5741 5733 5725 5716 5708 5700 5692 5684 5676 5669 5661 5654 5648 5641 5635 5630 5624 5620 5616 5612 5608 5605 5603 5601 5601 5601 5603 5606 5609 5613
5804 5800 5797 5793 5789 5785 5780 5774 5769 5763 5756 5749 5741 5733 5725 5717 5708 5700 5692 5683 5675 5668 5661 5653 5646 5639 5633 5627 5621 5616 5611 5606 5602 5598 5595 5592 5590 5589 5589 5591 5594 5597 5601
5798 5794 5791 5787 5782 5778 5773 5767 5761 5755 5748 5741 5733 5725 5717 5709 5700 5692 5684 5676 5668 5660 5653 5646 5639 5632 5625 5619 5613 5608 5603 5598 5593 5589 5585 5582 5579 5578 5578 5580 5583 5586 5590
5791 5787 5783 5779 5775 5770 5765 5759 5753 5747 5740 5733 5725 5717 5709 5700 5692 5684 5676 5668 5661 5653 5646 5639 5632 5625 5618 5612 5606 5601 5596 5590 5585 5581 5576 5572 5569 5568 5568 5569 5572 5575 5580
5783 5780 5776 5771 5767 5762 5756 5751 5745 5739 5732 5724 5717 5709 5701 5693 5684 5676 5668 5661 5653 5646 5639 5632 5625 5619 5612 5606 5600 5594 5589 5584 5579 5574 5569 5565 5562 5560 5559 5560 5562 5565 5570
5775 5772 5768 5764 5759 5754 5748 5743 5736 5730 5723 5716 5708 5700 5693 5685 5677 5669 5661 5654 5647 5639 5633 5626 5620 5613 5607 5600 5594 5588 5583 5578 5573 5568 5563 5559 5556 5554 5553 5553 5555 5557 5560
5767 5763 5759 5755 5750 5745 5739 5734 5728 5721 5714 5707 5700 5692 5684 5677 5669 5662 5655 5647 5641 5634 5627 5620 5614 5608 5601 5595 5589 5583 5578 5573 5568 5563 5558 5555 5552 5550 5549 5549 5550 5552 5555
Wind_Speed
17 17 17 15 15 16 16 16 17 17 17 18 19 19 20 21 23 24 25 26 26 27 28 28 28 29 30 30 31 31 32 33 33 33 34 34 34 35 35 35 35 35 34
15 14 13 13 14 14 15 15 16 17 18 19 19 20 22 23 24 26 26 27 27 28 28 29 29 29 30 31 31 32 33 33 34 34 35 35 36 37 37 37 37 37 36
13 12 12 13 13 14 15 17 17 17 18 19 20 22 23 24 25 27 27 28 28 29 29 29 29 30 30 30 31 32 32 33 34 34 35 36 37 37 37 38 39 39 39
10 11 12 13 13 15 16 17 17 17 18 20 21 23 24 25 26 27 28 28 29 29 29 29 30 30 31 31 31 32 33 33 34 34 35 36 36 37 37 38 39 40 40
10 11 11 12 13 15 16 16 17 18 20 21 23 23 24 25 26 27 27 28 28 28 29 29 30 30 31 31 32 33 34 34 35 35 36 36 37 37 38 39 39 40 41
9 10 11 13 14 15 16 17 19 20 21 22 23 23 24 24 25 26 27 27 28 28 28 29 30 31 32 32 33 34 35 35 36 37 37 38 38 38 39 39 40 41 41
10 11 13 14 14 16 17 18 20 21 22 22 23 23 24 25 26 27 27 27 28 29 29 30 31 32 33 34 34 35 36 37 37 38 39 39 39 39 40 40 41 42 42
11 12 13 14 15 16 18 19 20 21 22 22 23 23 24 26 26 27 27 28 29 30 30 31 32 33 34 35 35 36 37 37 38 39 40 40 40 40 41 41 41 42 43
12 13 14 15 16 17 19 19 21 22 22 23 23 24 25 27 27 28 28 29 30 31 32 33 34 35 36 36 37 37 38 38 39 40 40 41 41 41 41 41 42 42 43
12 13 14 15 17 18 19 20 21 21 22 23 24 25 26 27 28 29 30 31 32 33 34 35 36 37 37 37 37 38 38 39 39 40 40 40 41 42 42 42 42 42 43
12 13 15 16 17 18 19 20 21 22 23 24 25 26 28 29 30 31 33 34 35 36 36 37 37 38 38 38 38 38 39 39 39 40 40 40 41 42 42 43 43 43 43
12 14 15 16 17 18 19 21 22 23 24 25 27 28 30 32 33 35 36 37 38 38 39 39 39 38 38 38 38 39 38 38 38 39 39 40 41 41 42 43 44 44 44
13 14 15 16 18 19 21 22 23 24 25 27 29 31 33 34 36 37 38 39 40 40 40 40 39 39 39 39 39 38 38 38 38 39 39 40 40 41 42 43 44 45 45
14 15 16 17 19 20 21 23 24 25 27 29 32 34 35 37 38 39 40 41 42 42 41 41 40 39 39 39 39 38 38 38 38 38 39 40 41 41 42 43 44 45 46
15 16 17 19 20 21 23 24 26 27 29 31 34 36 37 39 41 41 42 43 43 42 42 41 40 39 39 38 38 37 37 36 36 37 38 39 41 42 43 44 45 45 46
16 18 19 20 21 23 24 26 28 29 32 34 36 38 40 41 42 43 43 43 43 43 42 41 40 39 38 38 37 36 35 35 35 35 36 37 38 40 42 43 45 47 47
18 19 20 21 23 24 26 28 29 31 34 36 38 40 42 43 44 44 44 44 43 42 41 40 38 37 37 37 36 35 34 34 34 34 35 36 36 38 40 42 43 44 46
19 20 22 23 24 25 27 29 31 33 35 37 39 41 43 44 44 45 44 44 43 41 40 39 37 36 36 35 34 34 33 33 33 34 34 35 36 37 38 39 41 42 44
20 22 23 24 25 27 28 30 32 34 36 39 41 43 44 45 45 45 44 44 42 40 39 38 37 36 35 34 33 33 32 32 32 33 33 34 35 36 37 38 38 39 41
22 23 24 26 27 28 30 31 33 35 38 41 43 44 45 46 46 45 45 43 41 40 38 37 36 35 34 34 33 32 31 31 30 30 31 31 32 34 34 35 37 37 39
24 25 26 27 28 29 31 33 35 38 40 43 45 46 46 47 46 46 44 43 41 39 37 37 36 34 33 32 31 29 28 28 28 27 28 29 29 30 31 33 35 36 38
25 26 28 28 29 31 33 35 37 40 42 45 46 47 47 47 47 46 44 42 40 38 37 36 34 33 32 31 29 28 27 27 27 26 26 27 27 28 29 30 33 35 37
27 28 29 30 32 33 34 36 39 41 44 46 47 48 48 47 47 46 43 41 40 38 37 35 33 33 31 30 28 27 26 26 25 25 25 24 24 24 25 28 31 34 36
30 31 32 33 35 36 37 38 41 43 46 47 48 49 48 48 46 45 43 41 39 37 35 34 32 31 31 30 28 27 26 25 24 23 22 20 19 19 21 23 26 29 33
33 34 35 37 38 38 39 41 43 45 47 48 50 50 49 47 45 43 42 40 38 36 34 33 32 31 30 29 27 26 24 23 23 22 19 17 16 15 15 17 20 23 28
35 36 38 40 41 40 42 44 46 47 48 50 51 50 49 47 44 42 41 39 37 36 34 32 31 30 29 28 26 25 24 22 21 19 16 14 12 10 10 12 15 19 22
Wind_Direction
266 272 279 285 287 291 290 292 293 292 293 296 298 300 299 298 297 296 295 294 293 291 290 288 286 284 282 281 278 276 274 272 270 268 267 265 263 261 258 255 255 253 251
271 278 282 288 293 295 297 301 302 301 301 301 303 304 302 301 300 299 299 297 296 294 292 290 288 286 284 281 279 277 275 273 270 268 266 264 262 260 258 255 254 252 251
274 280 291 297 300 301 304 307 307 306 306 306 306 304 303 301 301 301 300 300 299 297 295 293 290 288 286 283 280 278 276 273 271 269 266 264 261 260 258 255 253 251 250
280 292 298 301 304 307 306 307 308 309 309 308 306 305 304 302 302 302 301 300 299 297 295 293 290 288 286 283 281 279 277 274 272 269 267 264 262 259 257 256 254 251 249
292 297 299 303 305 308 310 309 309 309 309 308 307 307 306 305 304 303 302 300 298 296 294 293 291 289 286 284 282 279 277 275 273 270 267 265 262 259 256 254 253 252 249
298 302 303 305 307 309 309 309 310 310 311 311 311 310 310 308 307 306 305 303 301 299 297 295 293 291 288 285 283 280 278 276 274 271 269 266 263 260 256 253 251 251 249
307 306 306 308 309 309 309 310 311 313 314 314 313 313 312 311 310 308 307 305 303 302 299 297 295 292 289 286 284 281 278 276 274 272 269 267 264 261 257 254 251 250 249
310 310 311 311 310 309 310 312 314 315 315 315 315 315 315 314 312 310 309 307 305 303 301 299 297 294 291 288 285 282 279 276 274 272 269 266 264 261 258 255 251 249 247
312 310 309 309 309 310 312 314 315 316 316 316 316 316 316 316 315 314 312 311 309 306 304 301 299 296 293 289 286 283 280 277 274 271 268 265 263 260 257 255 251 248 246
310 308 308 309 311 313 314 315 317 317 318 318 318 319 319 318 317 316 315 314 311 308 306 304 301 298 295 291 287 284 281 277 274 271 268 265 262 259 256 254 251 248 245
308 307 308 312 314 315 316 317 319 320 321 322 322 322 322 321 320 319 317 315 313 310 308 306 303 300 296 292 288 285 282 278 274 271 268 265 262 259 256 253 250 248 246
308 309 312 314 316 317 318 320 322 323 324 324 324 323 323 322 321 319 318 316 313 311 309 307 305 301 298 294 290 286 283 279 275 271 267 264 262 259 256 253 250 248 246
309 312 314 316 318 320 321 323 324 325 325 326 326 325 324 323 322 321 319 317 315 313 310 308 305 303 299 296 292 288 283 279 275 271 267 264 262 259 256 253 250 248 246
310 313 316 318 320 322 324 325 326 327 327 328 328 327 326 325 324 322 321 319 317 314 311 309 306 304 300 297 293 289 285 281 276 272 268 265 262 259 256 253 251 248 246
311 314 316 319 321 324 326 328 328 329 329 328 328 328 327 326 326 324 322 320 318 316 313 311 308 305 302 299 296 292 288 284 279 274 271 267 264 260 256 253 251 248 245
310 314 317 320 322 324 327 329 329 330 329 329 328 328 328 327 326 325 324 322 320 318 315 313 310 308 305 302 298 294 290 286 281 277 274 270 266 262 258 255 251 248 244
310 313 317 319 321 323 326 328 329 329 329 329 328 328 328 327 327 326 325 324 322 320 318 316 313 310 308 305 302 297 293 288 283 279 276 273 269 264 259 255 251 248 244
309 313 316 318 320 323 326 327 328 328 328 329 329 329 329 328 328 327 327 326 324 322 320 318 315 313 310 308 304 300 295 291 287 283 278 274 270 265 259 255 250 246 242
310 313 315 317 320 322 323 325 327 328 328 329 330 331 330 330 329 328 328 327 325 324 322 320 318 315 312 310 308 303 299 294 289 285 280 275 270 264 258 253 248 244 240
309 312 314 316 318 320 322 324 326 327 329 330 331 332 331 331 330 330 329 328 326 325 323 322 320 318 316 314 311 307 303 298 293 289 284 278 271 265 259 252 247 242 238
309 311 313 315 317 319 321 323 325 326 328 330 331 332 332 331 331 330 330 328 327 326 325 324 323 321 319 317 314 311 309 305 299 293 288 282 274 267 259 252 245 240 236
308 310 312 314 316 318 319 322 324 326 327 329 330 331 331 331 331 331 330 329 328 327 326 326 325 324 322 320 317 314 311 309 305 299 293 287 279 269 259 251 243 239 236
308 309 310 313 315 316 318 321 323 325 327 328 330 330 331 331 331 331 330 329 328 328 328 327 326 325 324 322 319 317 315 313 310 306 300 292 283 271 259 250 244 240 236
306 308 309 310 313 315 317 319 322 324 326 327 328 329 329 330 330 330 330 330 329 328 328 329 328 327 325 324 321 319 318 316 313 311 307 297 288 274 260 250 244 238 233
305 306 307 309 311 313 315 318 321 323 324 326 327 328 328 329 329 329 330 329 329 329 329 329 330 329 328 326 324 322 321 319 317 314 310 303 293 278 260 248 240 234 229
302 304 306 308 309 310 314 317 319 320 322 324 325 325 326 327 328 328 328 328 329 329 329 330 331 332 331 330 328 326 324 322 320 317 313 308 299 282 260 244 234 229 225